Location: Curicchi
(45.0167°N, 12.0500°E)
Time: 06:35:04
(UTC+00:00)

N. Korean satellite - Pass Details

Date: 09 August 2021
Orbit: 448 x 498 km, 97.3° (Epoch: 20 September)

Event Time Altitude Azimuth Distance (km) Brightness Sun altitude
Rises 03:25:02 0° 34° (NNE) 2,522 11.5 -7.3°
Reaches altitude 10° 03:28:20 10° 68° (ENE) 1,624 11.0 -6.8°
Maximum altitude 03:29:38 12° 90° (E) 1,511 10.1 -6.6°
Drops below altitude 10° 03:30:57 10° 112° (ESE) 1,608 9.8 -6.4°
Sets 03:34:09 0° 146° (SE) 2,462 10.2 -5.9°
